Terminal Aerodrome Forecast
Issued by NWS Pueblo, CO

Home | Current Version | Previous Version | Text Only | Print | Product List | Glossary On
Versions: 1 2 3 4 5 6 7 8 9 10 11 12 13 14 15 16 17 18 19 20 21 22 23 24 25 26 27 28 29 30 31 32 33 34 35 36 37 38 39 40 41 42
000
FTUS45 KPUB 241144
TAFCOS
TAF
KCOS 241144Z 2412/2512 35008KT P6SM SKC
     FM241500 01009KT P6SM FEW070
     FM250000 34008KT P6SM BKN070
     FM250900 35017G27KT P6SM VCSH BKN030=

USA.gov is the U.S. government's official web portal to all federal, state and local government web resources and services.